Simultaneous Nadir Overpasses (SNOs) Predictions

Prediction of SNOs between GOES-18 and NOAA-21 Satellite Orbit:

Table of predicted SNOs for the next 14.0 days since TLE Epoch: 8/25/2023
Index Date Time (GOES-18) GOES-18 Lat,Lon NOAA-21 Lat,Lon Distance(km) Time Diff (sec)
1 08/26/2023 10:44:05 0.02,-137.01 0.60,-139.72 308.83 80
2 08/27/2023 10:22:40 0.02,-137.00 -0.39,-135.19 206.47 80
3 08/28/2023 22:44:37 -0.03,-136.98 -0.79,-140.50 400.90 80
4 08/29/2023 22:28:33 -0.03,-136.97 0.20,-135.97 114.16 80
5 08/31/2023 10:50:21 0.03,-136.96 0.99,-141.24 487.61 80
6 09/01/2023 10:28:57 0.03,-136.95 -0.00,-136.71 27.36 80
7 09/03/2023 22:32:10 -0.03,-136.91 -0.17,-137.49 66.07 80
8 09/04/2023 22:16:05 -0.03,-136.89 0.83,-132.96 448.45 80
9 09/06/2023 10:37:53 0.04,-136.88 0.35,-138.23 154.33 80
10 09/07/2023 10:16:29 0.04,-136.86 -0.65,-133.70 359.77 80
